[[{"header":{"parameterUnit":"m.s-1","parameterCategory":1,"la1":30.2991,"la2":30.254,"lo1":-89.0895,"lo2":-89.0444,"dy":0.0017,"dx":0.0017,"nx":28,"ny":28,"refTime":"2024-02-18T03:00:00:Z","depth":0,"parameterNumber":2,"parameterNumberName":"U-component_of_WINDS"},"data":[0,0,0,0,0,0,0,0,0,0,0,0,0,0,0,0,0,0,0,0,0,0,0,0,0,0,0,0,0,0,0,0,0,0,0,0,0,0,0,0,0,0,0,0,0,0,0,0,0,0,0,0,0,0,0,0,0,0,-1.2339,-1.234,0,-1.2418,-1.2418,-1.2419,-1.2355,-1.2352,-1.235,-1.2347,-1.243,-1.2435,-1.2439,0,0,0,0,0,0,0,0,0,0,0,0,0,-1.2136,-1.214,-1.2339,-1.234,-1.2341,-1.2417,-1.2419,-1.242,-1.2356,-1.2352,-1.2349,-1.2346,-1.2428,-1.2434,-1.244,0,0,0,0,0,0,0,0,0,0,0,0,0,-1.222,-1.2141,-1.2339,-1.2318,-1.2317,-1.2417,-1.2419,-1.242,-1.2356,-1.2352,-1.2348,-1.2344,-1.2427,-1.2434,-1.2441,-1.2566,0,0,-1.2462,-1.2465,0,0,0,0,0,0,0,0,-1.2216,-1.2228,-1.2321,-1.232,-1.2319,-1.2372,-1.2377,-1.2469,-1.2357,-1.2342,-1.2347,-1.2342,-1.2414,-1.2422,-1.2446,-1.257,-1.2573,-1.2463,-1.2467,-1.247,-1.2472,0,0,0,0,0,0,0,-1.221,-1.2224,-1.237,-1.2322,-1.2321,-1.2306,-1.2313,-1.2394,-1.24,-1.2343,-1.2338,-1.2348,-1.2413,-1.2439,-1.2447,-1.2574,-1.2463,-1.2469,-1.2473,-1.2476,-1.2805,-1.2809,0,0,0,0,0,0,-1.2206,-1.222,-1.2368,-1.2373,-1.2256,-1.2313,-1.2321,-1.2359,-1.2399,-1.2401,-1.2352,-1.2345,-1.2429,-1.2439,-1.245,-1.26,-1.247,-1.2477,-1.2481,-1.28,-1.2806,-1.281,0,0,0,0,0,0,-1.2202,-1.222,-1.2365,-1.2295,-1.2312,-1.232,-1.2364,-1.2363,-1.2389,-1.2406,-1.2406,-1.2377,-1.2426,-1.244,-1.2537,-1.2602,-1.248,-1.2486,-1.2795,-1.2802,-1.2808,-1.2901,0,0,0,0,0,0,-1.2196,-1.2218,-1.2266,-1.2296,-1.2316,-1.2451,-1.2368,-1.2368,-1.2401,-1.2393,-1.243,-1.2432,-1.2424,-1.2527,-1.2544,-1.261,-1.2492,-1.2789,-1.2798,-1.2806,-1.2892,-1.291,-1.2925,0,0,0,0,0,-1.2189,-1.229,-1.2269,-1.2287,-1.2376,-1.2454,-1.2466,-1.2454,-1.2407,-1.2455,-1.2465,-1.2431,-1.2591,-1.2537,-1.2556,-1.2625,-1.2785,-1.2795,-1.2805,-1.2885,-1.2906,-1.2925,0,0,0,0,0,0,-1.2268,-1.2293,-1.2271,-1.2384,-1.2417,-1.2443,-1.2504,-1.2477,-1.2526,-1.2517,-1.25,-1.2509,-1.2612,-1.2627,-1.2567,-1.2748,-1.2681,-1.2695,-1.2735,-1.2755,-1.2772,-1.2767,-1.2498,0,0,0,0,0,-1.2298,-1.2359,-1.2378,-1.2476,-1.2494,-1.2496,-1.253,-1.2518,-1.2552,-1.2567,-1.2584,-1.262,-1.2678,-1.2717,-1.2771,-1.2893,-1.29,-1.2949,-1.2965,-1.2979,-1.2992,-1.3058,-1.3081,-1.2843,-1.2843,-1.2843,0,0,-1.2362,-1.2383,-1.2424,-1.2493,-1.2517,-1.2582,-1.2509,-1.258,-1.2628,-1.2578,-1.2671,-1.2685,-1.2723,-1.2833,-1.2882,-1.2849,-1.3059,-1.2992,-1.3002,-1.3009,-1.3071,-1.3094,-1.3114,-1.285,-1.2849,-1.2848,0,0,-1.2512,-1.2534,-1.2618,-1.2644,-1.2681,-1.2682,-1.2702,-1.2732,-1.2739,-1.2832,-1.2795,-1.2851,-1.2952,-1.2981,-1.3009,-1.3168,-1.3139,-1.3186,-1.3273,-1.3338,-1.3357,-1.3373,-1.3432,-1.3453,-1.3198,-1.3199,-1.3199,0,-1.2588,-1.2683,-1.2665,-1.274,-1.2772,-1.2726,-1.2813,-1.2838,-1.2892,-1.2916,-1.2877,-1.3002,-1.3025,-1.3141,-1.318,-1.3203,-1.3227,-1.3183,-1.3355,-1.3372,-1.3387,-1.3442,-1.3464,-1.3204,-1.3204,-1.3203,-1.3203,0,-1.2774,-1.2841,-1.2904,-1.2957,-1.2995,-1.3075,-1.307,-1.3111,-1.3095,-1.3099,-1.3194,-1.3219,-1.3278,-1.3304,-1.3289,-1.3419,-1.3397,-1.3357,-1.329,-1.3415,-1.3468,-1.3488,-1.3213,-1.3211,-1.3209,-1.3207,0,0,-1.298,-1.302,-1.3044,-1.3067,-1.3104,-1.3155,-1.3232,-1.3289,-1.3325,-1.3363,-1.3429,-1.3513,-1.3476,-1.3508,-1.3495,-1.3552,-1.3678,-1.3505,-1.3505,-1.3538,-1.3823,-1.3855,-1.388,-1.3657,-1.3661,-1.3664,-1.3821,0,-1.3133,-1.3268,-1.3253,-1.3382,-1.3443,-1.34,-1.3467,-1.3498,-1.3503,-1.3556,-1.3562,-1.3624,-1.3569,-1.3588,-1.3641,-1.3651,-1.3735,-1.3639,-1.3719,-1.3722,-1.3714,-1.3907,-1.3942,-1.4089,-1.3841,-1.3844,-1.3847,0,-1.3331,-1.3375,-1.351,-1.3537,-1.3562,-1.3623,-1.3673,-1.3724,-1.3757,-1.3757,-1.3792,-1.3769,-1.3847,-1.3775,-1.3883,-1.3818,-1.3849,-1.3859,-1.3864,-1.3874,-1.3795,-1.3925,-1.4135,-1.4159,-1.3878,-1.3876,-1.3873,0,-1.3471,-1.3563,-1.3655,-1.3676,-1.371,-1.3754,-1.377,-1.3798,-1.3833,-1.3877,-1.3899,-1.3952,-1.3981,-1.4022,-1.4015,-1.3963,-1.4125,-1.4052,-1.4129,-1.4129,-1.4168,-1.4166,-1.439,-1.4183,-1.4183,-1.4183,-1.4182,0,-1.3645,-1.373,-1.3718,-1.3776,-1.3869,-1.3851,-1.3944,-1.3954,-1.398,-1.4039,-1.4003,-1.406,-1.4044,-1.41,-1.4094,-1.4185,-1.4197,-1.4201,-1.4199,-1.4206,-1.4206,-1.4229,-1.4219,-1.4188,-1.4187,-1.4186,-1.4185,0,-1.3819,-1.3814,-1.3912,-1.3935,-1.3942,-1.401,-1.403,-1.4084,-1.4085,-1.416,-1.4177,-1.4179,-1.4243,-1.4238,-1.4309,-1.4305,-1.4418,-1.4402,-1.4407,-1.4405,-1.4483,-1.4476,-1.4731,-1.4764,-1.4534,-1.4536,-1.4538,0,-1.3932,-1.3996,-1.4025,-1.4061,-1.408,-1.4139,-1.4174,-1.4158,-1.4195,-1.4237,-1.4287,-1.4346,-1.4394,-1.4497,-1.4506,-1.456,-1.4547,-1.4632,-1.4555,-1.456,-1.4551,-1.4549,-1.4556,-1.4649,-1.4651,-1.4653,-1.4655,0,-1.4135,-1.4129,-1.418,-1.4231,-1.4273,-1.4312,-1.4348,-1.4379,-1.4366,-1.4411,-1.4475,-1.4511,-1.4583,-1.4644,-1.4695,-1.4711,-1.4683,-1.4678,-1.4699,-1.4709,-1.471,-1.4713,-1.4452,-1.4674,-1.4672,-1.4671,-1.4669,-1.4669,-1.4283,-1.4338,-1.4367,-1.4425,-1.4449,-1.4483,-1.4535,-1.4542,-1.4595,-1.4652,-1.4638,-1.4711,-1.4741,-1.4807,-1.4828,-1.4885,-1.4854,-1.4884,-1.4892,-1.4901,-1.4911,-1.4698,-1.4894,-1.4893,-1.4893,-1.4892,-1.4892,0,-1.4486,-1.4502,-1.4555,-1.4605,-1.4651,-1.4617,-1.4654,-1.4695,-1.4759,-1.4789,-1.4836,-1.4909,-1.4967,-1.4979,-1.5034,-1.5077,-1.5065,-1.5092,-1.5091,-1.5095,-1.4934,-1.4911,-1.5101,-1.5101,-1.5101,-1.5101,-1.5101,-1.5101,-1.4597,-1.4689,-1.4686,-1.4789,-1.4804,-1.4874,-1.4898,-1.4929,-1.4953,-1.5037,-1.5084,-1.5091,-1.5114,-1.517,-1.5222,-1.5224,-1.5247,-1.5281,-1.5278,-1.5127,-1.5107,-1.5087,-1.5066,-1.5285,-1.5285,-1.5435,-1.5436,-1.5437]},{"header":{"parameterUnit":"m.s-1","parameterCategory":1,"la1":30.2991,"la2":30.254,"lo1":-89.0895,"lo2":-89.0444,"dy":0.0017,"dx":0.0017,"nx":28,"ny":28,"refTime":"2024-02-18T03:00:00:Z","depth":0,"parameterNumber":3,"parameterNumberName":"V-component_of_WINDS"},"data":[0,0,0,0,0,0,0,0,0,0,0,0,0,0,0,0,0,0,0,0,0,0,0,0,0,0,0,0,0,0,0,0,0,0,0,0,0,0,0,0,0,0,0,0,0,0,0,0,0,0,0,0,0,0,0,0,0,0,-4.3464,-4.3466,0,-4.3593,-4.3594,-4.3596,-4.3543,-4.354,-4.3537,-4.3534,-4.3663,-4.3669,-4.3675,0,0,0,0,0,0,0,0,0,0,0,0,0,-4.317,-4.3175,-4.3464,-4.3466,-4.3467,-4.3592,-4.3594,-4.3596,-4.3544,-4.354,-4.3537,-4.3533,-4.3661,-4.3668,-4.3676,0,0,0,0,0,0,0,0,0,0,0,0,0,-4.3298,-4.3177,-4.3464,-4.3457,-4.3457,-4.3592,-4.3594,-4.3596,-4.3545,-4.354,-4.3536,-4.3531,-4.3659,-4.3668,-4.3677,-4.3826,0,0,-4.3706,-4.371,0,0,0,0,0,0,0,0,-4.3291,-4.3309,-4.3456,-4.3457,-4.3458,-4.3547,-4.3537,-4.3673,-4.3546,-4.3511,-4.3534,-4.3529,-4.3628,-4.364,-4.3674,-4.3832,-4.3837,-4.3706,-4.3712,-4.3716,-4.3719,0,0,0,0,0,0,0,-4.3282,-4.3303,-4.3515,-4.3458,-4.346,-4.3445,-4.3459,-4.3563,-4.3594,-4.3514,-4.3511,-4.3527,-4.3628,-4.3665,-4.3676,-4.3839,-4.3706,-4.3714,-4.372,-4.3724,-4.4124,-4.4128,0,0,0,0,0,0,-4.3273,-4.3296,-4.3511,-4.3519,-4.3362,-4.3454,-4.3469,-4.3523,-4.3592,-4.3599,-4.353,-4.3524,-4.3651,-4.3665,-4.3681,-4.3858,-4.3716,-4.3725,-4.373,-4.4119,-4.4125,-4.413,0,0,0,0,0,0,-4.3267,-4.3293,-4.3506,-4.3406,-4.3432,-4.3464,-4.3526,-4.3528,-4.3565,-4.3605,-4.3609,-4.3563,-4.3648,-4.3667,-4.379,-4.3862,-4.3729,-4.3738,-4.4113,-4.412,-4.4127,-4.4216,0,0,0,0,0,0,-4.3259,-4.3291,-4.3349,-4.3408,-4.3438,-4.3614,-4.353,-4.3534,-4.3582,-4.3574,-4.3636,-4.3642,-4.3646,-4.3776,-4.3799,-4.3873,-4.3745,-4.4106,-4.4116,-4.4125,-4.4206,-4.4225,-4.4241,0,0,0,0,0,-4.3249,-4.3369,-4.3352,-4.3379,-4.3511,-4.3619,-4.3636,-4.3638,-4.3588,-4.3646,-4.3671,-4.364,-4.385,-4.3789,-4.3815,-4.3892,-4.4102,-4.4113,-4.4124,-4.4199,-4.4222,-4.4241,0,0,0,0,0,0,-4.3317,-4.3376,-4.3359,-4.3502,-4.3556,-4.361,-4.3683,-4.3663,-4.3731,-4.3721,-4.372,-4.3735,-4.3861,-4.3888,-4.3819,-4.4038,-4.3968,-4.3985,-4.4016,-4.4038,-4.4055,-4.4046,-4.3753,0,0,0,0,0,-4.3349,-4.3432,-4.3479,-4.36,-4.3628,-4.3651,-4.3698,-4.3695,-4.375,-4.3773,-4.3807,-4.386,-4.3938,-4.399,-4.4064,-4.421,-4.4222,-4.4275,-4.4293,-4.4307,-4.4321,-4.4399,-4.4423,-4.4167,-4.4167,-4.4167,0,0,-4.3415,-4.3458,-4.351,-4.3615,-4.3657,-4.3741,-4.3671,-4.3764,-4.3826,-4.3786,-4.3904,-4.3931,-4.399,-4.4125,-4.4186,-4.4152,-4.4395,-4.4321,-4.4332,-4.4339,-4.4413,-4.4437,-4.4459,-4.4175,-4.4173,-4.4172,0,0,-4.3579,-4.3621,-4.3726,-4.3769,-4.3832,-4.3846,-4.3871,-4.3928,-4.3945,-4.4063,-4.4034,-4.4107,-4.4242,-4.4286,-4.4325,-4.4504,-4.4478,-4.4528,-4.4619,-4.4695,-4.4715,-4.4733,-4.4796,-4.4818,-4.4542,-4.4542,-4.4543,0,-4.3654,-4.3782,-4.3782,-4.3878,-4.3924,-4.3892,-4.3997,-4.4038,-4.4123,-4.4154,-4.4115,-4.4282,-4.432,-4.4464,-4.4507,-4.4541,-4.4568,-4.4521,-4.4712,-4.473,-4.4747,-4.4807,-4.483,-4.4548,-4.4547,-4.4547,-4.4546,0,-4.3869,-4.3958,-4.4035,-4.4118,-4.4173,-4.4273,-4.4287,-4.4342,-4.4334,-4.4351,-4.4471,-4.4515,-4.4597,-4.463,-4.4624,-4.4773,-4.475,-4.4712,-4.4641,-4.4777,-4.4833,-4.4856,-4.4556,-4.4554,-4.4552,-4.4551,0,0,-4.4082,-4.4162,-4.419,-4.4227,-4.4294,-4.4362,-4.4459,-4.454,-4.4586,-4.4645,-4.4725,-4.4839,-4.4804,-4.4849,-4.4846,-4.4913,-4.505,-4.4866,-4.4867,-4.4898,-4.5215,-4.5244,-4.527,-4.5033,-4.5037,-4.5041,-4.521,0,-4.4251,-4.4423,-4.4425,-4.4583,-4.4664,-4.4634,-4.4719,-4.4768,-4.4786,-4.4857,-4.4876,-4.4957,-4.4905,-4.4932,-4.4996,-4.502,-4.5113,-4.5007,-4.5107,-4.511,-4.5093,-4.53,-4.533,-4.5488,-4.5232,-4.5236,-4.5239,0,-4.4471,-4.4537,-4.4703,-4.4757,-4.4791,-4.4867,-4.494,-4.5008,-4.5063,-4.5071,-4.5121,-4.5107,-4.5205,-4.5131,-4.5264,-4.5192,-4.5232,-4.525,-4.5256,-4.5265,-4.5183,-4.5314,-4.5539,-4.5562,-4.5273,-4.527,-4.5268,0,-4.4609,-4.4739,-4.4855,-4.4887,-4.4952,-4.5006,-4.5036,-4.5086,-4.5133,-4.5196,-4.5227,-4.53,-4.5341,-4.5397,-4.5403,-4.5349,-4.5537,-4.5464,-4.5545,-4.5546,-4.5587,-4.5584,-4.5821,-4.5613,-4.5613,-4.5613,-4.5612,0,-4.4797,-4.49,-4.4917,-4.4988,-4.5101,-4.5102,-4.5214,-4.5239,-4.5283,-4.5357,-4.5335,-4.5405,-4.5409,-4.548,-4.5485,-4.5594,-4.5612,-4.5621,-4.5621,-4.5623,-4.5622,-4.5649,-4.5638,-4.5619,-4.5617,-4.5616,-4.5615,0,-4.497,-4.4986,-4.511,-4.5161,-4.5177,-4.5258,-4.5301,-4.5368,-4.5384,-4.5478,-4.55,-4.5524,-4.5607,-4.5618,-4.5715,-4.5718,-4.5848,-4.5837,-4.5831,-4.5829,-4.591,-4.5902,-4.6172,-4.6207,-4.5977,-4.598,-4.5981,0,-4.5089,-4.5168,-4.5227,-4.5276,-4.5308,-4.5387,-4.5435,-4.5438,-4.5489,-4.5556,-4.5614,-4.5695,-4.5759,-4.5892,-4.5917,-4.599,-4.598,-4.607,-4.5991,-4.599,-4.5981,-4.5976,-4.5983,-4.6085,-4.6088,-4.609,-4.6091,0,-4.5299,-4.5303,-4.5374,-4.5448,-4.5506,-4.5564,-4.5619,-4.5659,-4.5669,-4.5727,-4.5811,-4.5861,-4.5959,-4.6038,-4.611,-4.6139,-4.6117,-4.6116,-4.6138,-4.6141,-4.6134,-4.6138,-4.5872,-4.611,-4.6108,-4.6106,-4.6106,-4.6105,-4.5449,-4.5516,-4.5568,-4.5648,-4.5689,-4.574,-4.5805,-4.5829,-4.59,-4.598,-4.5977,-4.6069,-4.6119,-4.6214,-4.6247,-4.6318,-4.6289,-4.6322,-4.633,-4.6338,-4.6346,-4.6123,-4.6331,-4.6331,-4.633,-4.633,-4.633,0,-4.5657,-4.5688,-4.5762,-4.5838,-4.5901,-4.5874,-4.5933,-4.5986,-4.6068,-4.6117,-4.6181,-4.6276,-4.6353,-4.6384,-4.6458,-4.6509,-4.6501,-4.6528,-4.6525,-4.6531,-4.6369,-4.6341,-4.6534,-4.6534,-4.6534,-4.6534,-4.6534,-4.6534,-4.5772,-4.5885,-4.5894,-4.6026,-4.6056,-4.6148,-4.6183,-4.6229,-4.6268,-4.6377,-4.644,-4.646,-4.6501,-4.6578,-4.6646,-4.6653,-4.6681,-4.6714,-4.6716,-4.6564,-4.6543,-4.6523,-4.6498,-4.672,-4.672,-4.6873,-4.6874,-4.6875]}]]